Regional Weather Roundup
Issued by NWS

Home | Current Version | Previous Version | Graphics & Text | Print | Product List | Glossary Off
Versions: 1 2 3 4 5 6 7 8 9 10 11 12 13 14 15 16 17 18 19 20 21 22 23 24 25 26 27 28 29 30 31 32 33 34 35 36 37 38 39 40 41 42 43 44 45 46 47 48 49 50

000
ASUS43 KMPX 311510
RWRMN
WEATHER ROUNDUP FOR MINNESOTA
NATIONAL WEATHER SERVICE TWIN CITIES/CHANHASSEN MN
1000 AM CDT FRI OCT 31 2014


NOTE: "FAIR" INDICATES FEW OR NO CLOUDS BELOW 12,000 FEET WITH NO
SIGNIFICANT WEATHER AND/OR OBSTRUCTIONS TO VISIBILITY. N/A MEANS
CURRENT SKY AND/OR WEATHER CONDITIONS ARE NOT AVAILABLE.

MNZ060>063-068>070-311600-
   Twin Cities Metro

CITY           SKY/WX    TMP DP  RH WIND       PRES   REMARKS
TWIN CITIES    SUNNY     31  17  56 N17       30.55R WCI  19
ST PAUL        SUNNY     31  18  58 N16       30.56S WCI  20
CRYSTAL        SUNNY     32  17  54 N14       30.54S WCI  22
BLAINE         SUNNY     30  19  64 N12G21      N/A  WCI  21
LAKEVILLE      SUNNY     28  18  64 NE15G21   30.53S WCI  17
EDEN PRAIRIE   SUNNY     30  17  58 N17       30.53S WCI  18
SOUTH ST PAUL  SUNNY     32  18  55 N10G18    30.54S WCI  23
LAKE ELMO      FAIR      32  19  59 N9G21     30.54S WCI  24
$$
MNZ001>005-007-008-013>017-022>024-027-028-311600-
   Northwest Minnesota

CITY           SKY/WX    TMP DP  RH WIND       PRES   REMARKS
BEMIDJI        SUNNY     25  19  78 N3        30.59R
HALLOCK        SUNNY     21  18  86 CALM      30.59F
ROSEAU         SUNNY     25  19  80 CALM      30.59F
WARROAD        CLOUDY    25  19  80 CALM      30.60S
THIEF RVR FALL SUNNY     25  19  80 E6        30.60F WCI  18
CROOKSTON      SUNNY     21  18  86 CALM      30.62F
FOSSTON        SUNNY     27  21  80 CALM      30.61S
DETROIT LAKES  SUNNY     27  23  86 CALM      30.60R
MOORHEAD       SUNNY     21  19  93 CALM      30.63F
PARK RAPIDS    SUNNY     26  19  74 N5        30.58R WCI  20
MAHNOMEN       FAIR      22  19  88 CALM      30.61R
$$
MNZ006-009>011-018-025>026-311600-
   North Central Minnesota

CITY           SKY/WX    TMP DP  RH WIND       PRES   REMARKS
BAUDETTE       SUNNY     26  22  84 S3        30.59R
FLAG ISLAND    SUNNY     28  21  74 W7        30.58S WCI  21
INTL FALLS     SUNNY     28  20  71 NW6       30.57R WCI  22
WASKISH        SUNNY     27  23  86 CALM      30.59S
BIG FORK       SUNNY     27  19  74 N3        30.57R
LONGVILLE      SUNNY     28  18  64 N6        30.57S WCI  22
GRAND RAPIDS   SUNNY     27  16  63 N8        30.56R WCI  18
CRANE LAKE     SUNNY     25  19  80 NE5       30.58S WCI  19
ORR            CLOUDY    27  18  69 NE3       30.54R
COOK           PTSUNNY   27  19  74 NE5       30.56R WCI  21
WALKER         FAIR      27  18  67 N5        30.58S WCI  22
$$
MNZ012-019>021-037-311600-
   Northeast Minnesota

CITY           SKY/WX    TMP DP  RH WIND       PRES   REMARKS
DULUTH         MOSUNNY   29  17  61 N16       30.52S WCI  17
ELY            CLOUDY    27  19  74 CALM      30.54R
HIBBING        MOSUNNY   29  17  61 NE12      30.55S WCI  19
EVELETH        CLOUDY    28  21  74 NE10      30.55S WCI  19
DULUTH HARBOR  SUNNY     32  23  69 N17       30.57S WCI  21
TWO HARBORS    SUNNY     34  21  60 N9        30.52S WCI  26
SILVER BAY     SUNNY     32  19  59 N7        30.52S WCI  26
GRAND MARAIS     N/A     33  19  56 N8        30.54R WCI  26
G MARAIS ARPRT PTSUNNY   25  14  63 N10G25    30.47R WCI  15
$$
MNZ029>031-032-039>041-046>048-054>057-064-311600-
   West Central Minnesota

CITY           SKY/WX    TMP DP  RH WIND       PRES   REMARKS
FERGUS FALLS   SUNNY     25  19  80 CALM      30.64S
WHEATON        SUNNY     21  18  86 N3        30.64F
MORRIS         SUNNY     25  21  86 NW6       30.60R WCI  18
ALEXANDRIA     SUNNY     29  18  63 N10       30.58S WCI  20
ELBOW LAKE     FAIR      26  23  90 NW6       30.60S WCI  19
WADENA         SUNNY     25  19  80 NW5       30.58S WCI  19
GLENWOOD       SUNNY     28  19  69 NE9       30.58R WCI  20
APPLETON       SUNNY     28  23  80 N7        30.61R WCI  21
BENSON         SUNNY     27  23  86 N5        30.60R WCI  21
ORTONVILLE     SUNNY     25  19  80 N7        30.60F WCI  17
MADISON        SUNNY     28  25  86 NW5       30.61S WCI  23
WILLMAR        FAIR      30  19  64 NE10      30.60R WCI  21
$$
MNZ033>034-036-042>043-049>051-058-059-311600-
   Central Minnesota

CITY           SKY/WX    TMP DP  RH WIND       PRES   REMARKS
ST CLOUD       SUNNY     30  18  60 NW6       30.57R WCI  24
SAUK CENTRE    FAIR      27  18  68 N8        30.58S WCI  19
PAYNESVILLE    SUNNY     25  18  76 NW8       30.58S WCI  16
AITKIN         SUNNY     30  18  59 N7        30.54R WCI  23
PINE RIVER     SUNNY     28  18  64 NE7       30.59S WCI  21
BRAINERD       SUNNY     27  17  66 NE13      30.57R WCI  16
STAPLES        SUNNY     25  18  74 N3        30.57S
LONG PRAIRIE   FAIR      27  19  74 N6        30.57S WCI  20
LITTLE FALLS   SUNNY     30  18  59 N3        30.58R
LITCHFIELD     SUNNY     28  21  74 N9        30.58S WCI  20
BUFFALO        SUNNY     29  17  60 N10G17    30.57S WCI  20
MAPLE LAKE     SUNNY     31  21  65 N9        30.57S WCI  23
$$
MNZ037-044-045-052-053-311600-
   East Central Minnesota

CITY           SKY/WX    TMP DP  RH WIND       PRES   REMARKS
PRINCETON      SUNNY     30  18  59 N8G16     30.56R WCI  23
MORA           SUNNY     30  18  59 NE8       30.56S WCI  23
CAMBRIDGE      SUNNY     30  18  59 N12G18    30.52F WCI  21
RUSH CITY      SUNNY     30  19  62 N9G17     30.55S WCI  21
MOOSE LAKE     SUNNY     30  19  64 NE12      30.53S WCI  21
HINCKLEY       FAIR      30  19  64 N9G16     30.55S WCI  22
CLOQUET        SUNNY     28  18  64 N8        30.53S WCI  20
MCGREGOR       SUNNY     30  19  64 N9G16     30.55S WCI  22
$$
MNZ071>073-080-081-089-090-097-098-311600-
   Southwest Minnesota

CITY           SKY/WX    TMP DP  RH WIND       PRES   REMARKS
MONTEVIDEO     SUNNY     28  25  86 N6        30.62R WCI  22
GRANITE FALLS  SUNNY     27  22  79 N6        30.62S WCI  21
CANBY          SUNNY     25  22  89 N6        30.62R WCI  18
MARSHALL       SUNNY     25  19  80 N9        30.59R WCI  15
REDWOOD FALLS  SUNNY     29  20  69 N8        30.59R WCI  21
OLIVIA         SUNNY     30  23  74 N8        30.58R WCI  23
PIPESTONE      SUNNY     27  19  74 NE10      30.56R WCI  17
WINDOM         SUNNY     27  19  74 N16       30.56R WCI  14
WORTHINGTON    SUNNY     27  19  74 N15       30.56S WCI  15
JACKSON        SUNNY     30  19  64 N13       30.55R WCI  20
TRACY          SUNNY     27  22  84 NW9       30.59R WCI  17
SLAYTON        SUNNY     26  21  79 N10       30.57R WCI  16
$$
MNZ065>067-074>077-082>085-091>093-311600-
   South Central Minnesota

CITY           SKY/WX    TMP DP  RH WIND       PRES   REMARKS
MANKATO        SUNNY     28  16  59 N14G21    30.55R WCI  17
NEW ULM        SUNNY     27  19  74 N6        30.56S WCI  20
ST JAMES       SUNNY     30  19  64 N9        30.57S WCI  22
FAIRMONT       SUNNY     28  18  64 N16       30.55R WCI  17
GLENCOE        SUNNY     31  21  67 N10G17    30.56S WCI  22
FARIBAULT      SUNNY     30  18  59 N13G21    30.52S WCI  20
OWATONNA       SUNNY     30  18  59 N17       30.50F WCI  18
WASECA         SUNNY     32  18  55 N14G20    30.54R WCI  22
ALBERT LEA     SUNNY     30  18  59 N16G23    30.49S WCI  19
$$
MNZ078>079-086>088-094>096-311600-
   Southeast Minnesota

CITY           SKY/WX    TMP DP  RH WIND       PRES   REMARKS
ROCHESTER      SUNNY     30  18  60 N17       30.48R WCI  18
RED WING       SUNNY     32  18  55 N12       30.51S WCI  23
STANTON        SUNNY     32  18  57 N18       30.50S WCI  20
DODGE CENTER   SUNNY     30  19  64 N14G22    30.48S WCI  20
WINONA         SUNNY     34  21  60 N13G20    30.49R WCI  25
AUSTIN         SUNNY     28  19  69 N13G23    30.48R WCI  18
PRESTON        SUNNY     29  19  66 N16G26    30.45R WCI  17
$$
ABBREVIATIONS USED IN REMARKS
   TC - TEMPERATURES IN CELSIUS
  WCI - WIND CHILL INDEX
   HX - HEAT INDEX
  VSB - VISIBILITY
$$



USA.gov is the U.S. government's official web portal to all federal, state and local government web resources and services.